Location: Namasale
(1.5000°N, 32.6167°E)
Time: 13:17:26
(UTC+00:00)

Cosmos 1992 Rocket - Visible Passes

Search period start: 06 August 2020 00:00
Search period end: 16 August 2020 00:00
Orbit: 758 x 766 km, 74.0° (Epoch: 05 August)

Date Brightness Start Highest point End Pass type
(mag) Time Alt. Az. Time Alt. Az. Time Alt. Az.
09 Aug 6.3 18:09:15 10° N 18:09:57 14° N 18:09:57 14° N visible
10 Aug 6.0 17:31:28 10° NNE 17:32:32 14° NE 17:32:32 14° NE visible
11 Aug 6.2 18:33:34 10° NNW 18:35:23 21° NW 18:35:23 21° NW visible
12 Aug 4.7 17:54:33 10° NNW 17:58:11 46° N 17:58:11 46° N visible
13 Aug 4.4 17:16:12 10° N 17:21:02 39° ENE 17:21:04 39° ENE visible
13 Aug 7.0 19:01:13 10° W 19:01:17 10° W 19:01:17 10° W visible
14 Aug 5.4 16:38:46 10° NE 16:42:18 18° ENE 16:44:06 16° ESE visible
14 Aug 5.9 18:19:45 10° NW 18:23:56 25° WSW 18:24:19 25° WSW visible
15 Aug 4.6 17:40:11 10° NNW 17:45:13 54° WSW 17:47:30 31° SSW visible
